World > North America > United States > Iowa

Hourly Coon Rapids, IA Regional Weather

Feedback E-mail the Weather

Quick WX

Coon Rapids, IA Weather Maps

°F °C°F °C
Coon Rapids Weather Map
UTC Time: 7/5/2022, 10:36
Your Time:

Coon Rapids, IA Regional Weather

Expires:202207051100;;717499
ASUS43 KDMX 051006
RWRIA 

WEATHER ROUNDUP FOR IOWA
NATIONAL WEATHER SERVICE DES MOINES IA
500 AM CDT TUE JUL 05 2022

NOTE: "FAIR" INDICATES FEW OR NO CLOUDS BELOW 12,000 FEET WITH NO
SIGNIFICANT WEATHER AND/OR OBSTRUCTIONS TO VISIBILITY.

* - THESE STATIONS ARE NOT NWS STATIONS...THUS NOT UNDER NWS
QUALITY CONTROL.  THEY ALSO DO NOT REPORT WEATHER SUCH 
AS PRECIPITATION OR FOG.  


IAZ001>003-012>014-020>022-031>034-043>046-051100-
   NORTHWEST IOWA
  
CITY           SKY/WX    TMP DP  RH WIND       PRES   REMARKS
CARROLL *      PTCLDY    77  75  94 SW8       29.84S                  
CHEROKEE *     CLEAR     73  73 100 CALM      29.83S FOG              
DENISON *        N/A     77  77 100 S6        29.86S                  
LE MARS *      PTCLDY   106 N/A N/A CALM      29.81S FOG              
MAURICE *      FAIR      75  75 100 E8        29.82  FOG              
SHELDON *      PTCLDY    73  72  94 NE5       29.83R FOG              
SIOUX CITY     PTCLDY    75  72  90 NE5       29.81S                  
SPENCER        PTCLDY    75  71  87 N3        29.84S FOG              
STORM LAKE *   CLEAR     73  72  94 SW6       29.84S                  
$$
 

SKY/WX - Weather  TMP - Temperature  DP - Dew Point  RH - Humidity
WIND - Wind Direction/Speed PRES - Barometric Pressure VSB - Visibility
WCI - Wind Chill Index E13G22 Wind - East Wind 13 mph/Gusts of 22 mph

Trending Headlines

Coon Rapids Radar Loop



Coon Rapids Quick Facts


National Two Day Weather Forecast


E-mail the Coon Rapids Weather Forecast

Voice your opinion or tell us about page issues...